Location: Earls Croome
(52.0667°N, 2.2000°W)
Time: 01:07:07
(UTC+00:00)

COSMOS 2455 - Pass Details

Date: 28 February 2020
Orbit: 901 x 908 km, 67.2° (Epoch: 28 March)

Event Time Altitude Azimuth Distance (km) Brightness Sun altitude
Exits shadow 02:05:20 20° 359° (N) 2,000 5.0 -41.3°
Maximum altitude 02:06:05 20° 9° (N) 1,978 5.0 -41.2°
Drops below altitude 10° 02:10:26 10° 56° (NE) 2,601 5.8 -40.8°
Sets 02:13:41 0° 73° (ENE) 3,542 6.6 -40.5°
